GEFSNGP_500_meanwind_138.txt.gz
Wind_Speed
24 23 24 24 22 23 24 23 23 24 26 27 27 24 23 22 20 19 18 16 16 14 12 11 10 9 8 7 7 7 9 10 10 11 12 13 14 15 16 16 17 18 19 19
26 24 22 22 21 23 24 25 26 28 30 28 28 26 24 22 22 21 19 18 17 16 14 13 12 10 10 9 7 7 8 9 11 11 11 12 13 15 15 16 17 18 18 19
24 23 24 23 22 23 26 28 29 29 31 31 29 27 25 23 23 22 21 20 19 18 17 16 14 12 12 11 10 10 9 9 9 11 12 12 13 14 14 16 16 17 18 18
24 25 25 22 23 25 28 28 29 30 30 30 29 27 27 26 24 23 22 21 21 20 18 17 16 15 14 13 12 12 12 12 13 12 12 13 13 13 14 15 16 17 17 18
25 25 24 23 24 25 26 28 28 30 28 28 27 27 26 24 23 23 23 22 21 20 19 18 16 15 15 15 14 14 14 14 15 15 15 15 16 16 16 17 18 20 21 22
24 24 24 25 24 23 24 26 27 28 28 27 27 27 25 24 23 23 22 22 22 21 20 19 18 17 18 17 17 17 16 16 16 17 17 17 17 18 19 20 21 22 23 24
24 25 25 26 24 23 24 26 24 25 25 24 25 25 24 24 23 23 22 23 23 22 22 21 20 20 20 20 19 19 18 18 18 18 18 18 19 20 21 22 23 24 25 26
24 25 26 25 24 24 24 23 22 23 23 23 24 23 24 23 22 22 22 22 23 23 23 22 22 22 22 22 22 21 20 20 21 20 21 21 22 22 24 25 26 27 28 29
25 25 25 24 24 24 23 23 23 22 23 23 23 23 23 23 23 22 22 22 23 23 23 23 23 23 22 22 22 22 22 22 23 23 23 24 24 25 27 28 28 29 30 31
23 23 23 24 24 24 24 24 23 23 23 23 23 23 23 23 23 23 23 23 23 23 24 24 24 24 23 23 22 23 23 23 24 25 26 26 26 27 28 29 31 32 32 33
22 22 23 23 23 23 22 22 22 22 21 22 23 23 23 22 22 23 23 23 23 24 24 23 23 22 22 23 23 24 23 23 23 25 26 28 29 29 30 31 32 33 35 35
21 21 21 21 21 21 20 20 20 20 20 21 22 21 21 20 20 21 21 22 22 22 22 22 22 22 22 22 23 23 23 24 25 26 27 28 29 30 31 32 33 34 35 36
20 20 19 18 18 18 17 18 18 18 19 20 20 19 20 20 20 20 20 21 20 20 21 21 22 22 23 23 24 24 24 25 25 26 26 27 29 29 30 32 33 33 34 36
19 18 17 17 17 17 17 17 17 18 19 19 19 19 18 19 19 19 19 18 19 19 19 19 19 20 21 21 21 22 23 24 24 25 26 27 28 29 30 31 32 33 35 36
17 16 16 16 16 16 15 16 16 16 17 17 17 17 17 17 17 17 16 16 17 18 19 20 20 19 20 20 21 22 23 24 25 26 27 28 29 30 31 33 35 36 37 38
16 15 15 15 15 15 15 15 14 14 14 14 15 16 15 14 13 13 14 14 16 17 18 18 18 19 19 20 21 22 23 24 25 25 27 28 30 32 34 36 37 38 40 41
15 15 14 13 13 13 12 13 12 12 11 11 10 11 11 11 11 12 12 13 13 14 14 14 15 15 17 18 19 20 21 23 24 26 28 30 31 33 35 36 38 39 40 41
13 12 11 11 10 10 10 9 8 8 8 8 8 9 10 11 10 10 11 11 12 12 13 14 15 17 18 19 20 21 23 25 26 28 30 31 33 34 36 37 39 39 40 41
12 12 12 11 11 11 10 9 9 8 8 8 8 9 9 11 11 11 11 12 13 14 14 15 16 17 18 20 22 23 25 27 29 30 32 33 35 36 37 38 39 40 40 41
14 13 12 11 10 11 11 10 9 9 9 9 9 9 10 11 12 13 13 14 14 15 16 17 18 20 21 23 25 26 28 29 31 32 34 35 36 37 37 38 38 39 39 39
14 13 12 11 11 10 10 10 9 9 10 11 11 12 12 12 13 13 14 15 16 18 19 20 22 23 25 26 27 28 30 31 32 33 34 35 36 37 37 37 37 37 37 37
14 14 12 12 11 11 11 11 11 11 12 12 13 13 13 13 14 15 16 18 19 20 22 23 24 25 27 28 29 30 31 32 33 34 35 36 36 36 36 36 36 35 35 35
15 14 13 13 13 13 13 13 13 13 13 14 14 14 15 16 17 18 19 21 22 23 24 25 26 28 29 29 30 31 32 33 34 34 35 35 35 34 34 34 34 33 33 32
14 14 13 13 14 13 13 13 14 15 15 16 17 17 18 19 20 20 22 23 24 25 26 26 27 29 30 31 31 32 33 33 34 34 34 33 33 32 32 31 31 31 31 30
14 14 13 13 14 13 14 15 15 16 17 18 19 20 20 20 21 22 22 23 24 25 26 27 28 29 30 31 31 32 32 33 33 33 32 31 31 30 30 29 29 29 28 28
16 16 15 15 15 15 15 16 16 17 19 19 20 21 21 21 21 22 23 24 25 26 27 28 28 29 30 30 31 31 31 31 31 30 29 28 28 28 27 27 26 26 25 25
15 15 15 15 15 15 16 16 17 19 19 20 20 21 21 22 23 24 25 26 27 27 28 29 29 30 30 30 30 30 29 29 28 27 26 25 25 25 24 24 24 23 23 23

GEFSNGP_500_meanwind_144.txt.gz
Wind_Speed
23 24 25 25 25 25 25 25 25 24 25 23 22 22 21 20 17 15 13 12 13 13 12 11 10 10 10 10 10 9 9 10 11 11 12 13 14 16 17 18 18 19 20 20
27 26 26 26 27 27 27 26 26 26 26 24 23 22 22 21 19 18 15 15 15 15 13 13 12 12 11 11 11 11 12 11 12 12 12 13 14 15 16 17 18 19 20 21
27 27 27 28 27 28 28 27 26 26 25 24 23 23 23 22 22 20 17 17 17 16 14 13 13 13 13 13 14 13 12 12 13 12 13 14 14 15 16 17 19 20 20 21
28 28 29 27 28 29 27 27 27 27 26 26 25 24 24 24 23 21 19 19 18 17 15 15 14 14 14 13 13 12 12 12 13 13 13 13 15 16 17 18 19 20 21 22
28 28 27 27 27 28 28 27 27 26 25 25 26 25 25 24 22 21 20 19 18 18 16 15 15 15 15 15 15 14 13 13 13 13 13 14 15 16 16 17 18 19 19 21
28 28 27 26 26 26 26 27 26 26 25 25 25 26 24 24 23 20 19 18 18 18 17 16 16 16 16 16 17 16 16 15 15 15 15 15 16 17 17 17 18 18 20 21
29 28 28 25 25 25 25 24 23 23 23 24 25 24 23 23 22 21 20 19 18 18 18 18 18 17 16 16 17 16 16 16 16 16 16 17 17 17 17 18 18 19 20 22
28 28 27 23 23 23 23 21 21 21 21 22 22 22 22 21 21 21 20 19 17 16 17 17 16 16 16 16 17 17 18 17 18 18 17 17 17 18 18 18 19 20 21 22
25 25 24 23 22 21 21 21 21 20 21 21 22 21 20 19 19 19 18 17 16 16 17 16 16 17 17 17 17 18 18 19 19 19 20 20 20 20 20 20 21 21 22 23
25 23 22 21 21 21 21 21 21 20 19 19 19 19 18 17 17 17 16 17 16 17 17 17 17 17 18 17 18 18 19 19 19 20 21 20 20 20 20 20 21 22 23 24
24 22 21 20 20 20 20 20 19 19 19 18 18 18 18 17 17 17 17 17 18 17 17 17 17 17 18 18 18 19 19 19 20 21 22 22 21 21 21 21 22 23 24 25
21 20 19 19 19 19 19 19 19 18 17 17 17 17 17 17 17 16 17 17 18 18 18 17 17 17 18 18 17 17 18 18 18 17 18 19 20 21 21 22 23 24 24 25
20 19 18 18 18 18 17 17 17 17 16 16 16 16 15 15 16 15 16 17 17 17 17 16 16 17 17 17 17 16 16 17 17 18 18 19 19 20 21 22 22 24 25 26
19 18 18 17 17 17 16 16 15 15 16 16 15 14 15 14 14 15 16 16 17 16 17 16 16 16 16 15 15 15 16 16 16 17 19 20 21 21 22 23 24 25 26 28
17 17 16 16 15 15 14 13 12 12 13 14 14 14 13 13 14 13 14 15 15 15 16 16 16 15 15 15 15 15 16 17 18 20 21 22 22 23 24 24 25 27 29 30
16 15 15 13 12 12 11 11 11 11 12 12 13 13 13 13 13 13 14 14 14 14 14 15 15 15 16 16 16 17 18 19 20 21 22 22 23 23 25 26 27 28 30 32
13 12 12 11 11 11 11 11 11 11 11 12 12 12 13 12 12 12 12 12 12 12 13 13 13 14 14 15 16 17 18 19 19 20 22 23 24 25 27 28 29 31 32 33
13 12 11 11 11 11 11 11 11 11 11 10 11 10 11 11 11 11 11 11 11 11 12 12 13 14 15 16 16 17 18 19 21 22 23 24 26 27 28 30 31 33 34 35
14 12 11 10 10 10 10 10 10 10 10 10 9 9 9 9 9 9 9 10 11 12 13 13 14 14 15 16 17 18 20 22 23 24 25 26 27 29 30 32 33 34 35 36
12 11 11 11 10 9 9 9 9 10 9 9 9 8 9 9 10 10 11 11 11 12 12 13 14 15 16 17 19 20 22 23 25 26 27 28 29 31 32 34 35 35 36 36
11 11 10 10 10 10 10 9 9 9 9 9 9 9 9 10 10 11 11 12 12 13 13 15 16 17 18 19 21 22 24 25 26 27 28 30 31 32 33 34 35 35 35 35
12 11 11 11 10 10 10 10 9 9 9 9 9 10 10 10 10 11 12 13 13 14 15 16 17 19 20 21 23 24 25 26 27 29 30 31 32 33 33 34 34 34 33 33
12 12 13 12 11 10 10 9 9 9 9 9 9 10 11 11 12 12 13 14 15 16 17 18 20 21 22 23 24 25 26 27 28 29 30 31 32 32 32 32 32 32 32 33
13 12 12 12 11 10 10 10 10 10 10 10 11 11 12 13 14 14 15 16 17 18 19 20 21 22 23 25 25 26 27 27 28 29 30 30 31 31 31 31 31 31 31 31
13 12 11 11 11 11 11 11 11 11 11 12 12 13 14 15 15 16 17 18 19 20 21 22 23 23 24 25 26 27 28 28 29 29 29 29 29 29 30 30 29 29 28 28
13 13 12 12 12 12 11 11 11 12 12 13 14 15 15 16 17 18 19 20 21 22 22 23 24 25 25 26 27 28 29 29 29 29 29 29 28 28 28 27 27 27 26 26
13 13 13 12 12 13 13 13 13 13 14 15 16 16 17 18 19 20 21 22 22 23 24 25 26 26 27 28 29 29 29 29 29 28 28 28 28 27 27 26 25 25 25 25

GEFSNGP_500_meanwind_150.txt.gz
Wind_Speed
22 22 22 22 21 21 21 20 20 18 16 14 14 14 14 13 13 12 12 12 12 12 12 11 11 12 13 13 13 13 12 12 11 12 12 12 12 13 15 17 18 18 20 21
23 22 22 22 22 21 21 21 20 18 16 16 16 16 15 14 14 14 14 13 13 13 13 12 12 12 12 13 13 13 13 13 12 12 12 12 12 13 14 15 16 17 19 19
24 24 23 24 22 22 21 21 20 19 18 17 17 17 16 16 16 15 15 15 15 15 14 14 14 14 13 13 13 13 14 14 14 14 14 13 13 14 14 15 16 17 18 20
27 26 27 25 23 23 22 21 21 20 20 19 19 19 18 17 17 17 17 17 17 17 16 15 15 15 15 14 14 14 14 15 15 16 15 15 15 15 16 17 17 18 19 21
29 29 28 26 24 23 23 23 22 22 21 21 20 20 19 19 19 19 18 18 18 18 18 18 17 16 16 15 15 16 16 16 16 16 16 16 16 17 18 18 18 18 20 22
30 30 30 27 25 25 24 24 22 22 22 22 21 21 20 20 20 19 19 19 19 19 19 19 18 18 16 15 15 16 18 19 18 18 17 16 16 16 17 17 18 19 20 21
32 31 30 27 26 25 25 22 22 22 22 22 22 22 22 21 20 20 20 19 19 19 18 18 17 17 17 16 17 17 18 19 20 19 18 17 16 15 15 16 17 19 20 21
32 32 30 28 27 26 24 24 23 22 22 22 22 22 22 21 20 20 20 19 18 18 18 18 18 17 17 17 17 17 17 17 19 19 19 18 18 18 18 18 18 19 20 20
32 32 29 28 28 27 25 25 24 23 22 22 21 21 21 20 20 20 20 19 18 18 18 18 18 18 17 17 17 17 18 18 19 19 20 20 19 19 19 20 20 21 22 23
29 29 29 28 27 26 25 24 24 23 22 22 21 21 20 20 20 20 20 20 19 18 18 18 18 18 17 17 17 17 17 18 18 18 19 19 20 20 20 21 21 22 22 23
27 26 25 25 25 25 25 24 23 23 22 22 20 19 19 20 19 19 18 18 18 18 18 18 18 18 18 17 17 17 17 17 18 19 19 19 20 20 21 22 22 23 23 23
26 25 24 24 24 24 23 22 21 21 20 19 19 19 18 18 18 17 17 17 17 17 18 18 18 18 17 17 17 17 17 17 17 18 18 19 19 20 20 21 21 22 23 25
25 25 24 22 22 22 21 20 20 19 19 19 19 18 18 17 17 18 18 18 17 17 17 17 17 17 17 17 17 16 16 17 18 18 18 19 19 20 20 21 22 23 25 26
23 22 22 21 20 20 20 20 19 19 19 19 19 18 17 17 17 18 17 17 17 16 16 17 17 18 18 18 18 17 17 18 18 18 18 18 19 20 21 22 22 24 25 27
21 21 21 21 20 19 19 19 18 18 19 19 18 17 17 17 17 17 17 16 15 15 15 16 17 17 18 18 18 18 18 18 18 19 19 19 20 21 22 23 25 26 27 28
19 19 19 19 18 18 17 17 17 16 16 16 16 16 16 16 16 15 15 14 14 14 14 14 15 16 16 17 18 17 17 17 17 18 19 20 22 23 24 25 26 27 29 30
18 18 17 17 17 16 16 16 16 15 15 14 14 13 14 15 15 15 14 13 13 13 14 15 15 16 17 16 16 16 17 17 18 19 21 22 23 24 25 26 28 29 30 31
18 17 17 16 16 16 15 15 14 14 14 13 13 13 12 13 13 13 13 13 14 13 13 14 15 15 15 16 16 17 18 19 21 22 23 24 24 25 26 28 29 30 31 32
17 16 15 15 15 16 16 15 15 15 14 14 13 13 12 12 12 12 12 12 13 13 13 14 15 15 15 17 18 19 20 21 22 23 23 24 25 26 28 29 30 31 32 33
16 15 15 14 15 15 14 14 14 13 13 13 12 12 11 11 11 11 11 11 12 12 12 13 14 15 16 17 19 20 20 21 22 23 24 25 26 27 29 30 31 32 32 33
15 15 15 14 14 13 13 12 12 11 11 11 11 11 11 11 11 11 11 12 12 12 13 15 15 16 17 18 19 20 21 22 23 24 25 27 28 29 30 31 32 32 33 34
15 15 15 14 13 12 12 11 11 11 10 10 10 10 10 10 11 11 12 13 13 14 15 16 17 18 19 20 21 22 23 24 25 26 27 29 30 31 31 32 32 33 33 34
16 16 15 14 13 12 11 11 11 10 10 9 10 10 10 11 12 13 14 15 16 17 17 18 18 19 20 22 23 24 25 26 27 28 29 30 31 32 32 32 33 33 34 34
16 16 16 15 14 13 12 11 10 10 10 10 11 11 12 13 14 14 15 15 16 17 18 19 20 22 23 24 25 26 27 28 29 30 31 32 33 33 33 33 33 33 33 33
15 15 15 15 14 12 12 11 11 10 10 10 10 12 13 14 14 15 16 17 18 19 20 21 23 24 25 26 27 28 29 30 31 32 33 33 33 33 33 33 32 32 32 32
14 14 14 14 13 12 12 11 10 11 11 11 12 13 14 15 16 17 18 19 20 21 22 23 24 25 26 27 28 29 30 31 32 32 33 33 32 32 32 32 32 32 32 32
14 13 12 12 12 12 12 12 12 12 12 13 14 15 16 17 18 19 20 20 21 22 23 24 25 26 28 29 30 31 31 32 32 31 31 31 31 31 31 31 31 31 30 29

GEFSNGP_500_meanwind_156.txt.gz
Wind_Speed
23 21 20 20 20 19 19 17 16 16 17 17 16 16 15 15 15 14 14 14 14 14 14 14 13 13 14 13 13 14 14 15 15 15 15 15 16 15 15 17 18 18 19 20
24 23 22 21 21 20 20 19 18 17 18 18 17 16 16 17 16 16 15 15 14 15 15 15 14 14 14 14 14 14 15 15 15 16 15 16 15 14 14 14 15 17 18 19
23 23 22 23 22 22 21 19 18 18 18 17 17 18 18 18 18 17 17 17 16 15 15 16 16 15 15 15 15 15 16 15 15 15 15 15 15 15 14 15 15 16 18 19
23 24 24 23 22 21 21 21 19 18 18 18 18 18 18 18 19 19 18 18 17 16 16 16 17 16 16 16 16 16 15 16 16 16 16 15 15 16 16 17 17 17 17 17
25 24 25 25 23 21 21 21 20 20 19 20 19 19 19 20 20 20 20 19 19 18 17 17 17 18 17 17 17 16 16 15 16 17 18 17 16 16 17 17 18 18 19 19
27 26 26 26 23 22 21 22 21 20 20 20 20 21 20 20 21 21 21 21 21 20 19 19 19 19 19 19 18 18 17 16 17 17 18 18 18 18 18 19 19 20 20 20
29 27 27 27 24 23 24 23 21 21 21 21 21 22 21 21 22 22 22 22 21 21 21 20 20 20 19 19 19 19 18 17 17 17 18 19 19 19 19 19 19 20 20 20
29 28 29 27 25 26 25 23 23 22 22 22 22 22 22 22 22 22 22 21 21 22 21 21 20 20 19 19 19 19 19 19 18 18 19 19 19 19 19 19 20 20 21 21
31 30 29 27 27 27 26 26 24 23 23 23 23 23 22 22 22 22 22 22 22 22 22 21 21 20 20 19 19 20 19 19 19 18 19 20 20 20 20 21 21 22 22 22
30 30 29 28 27 28 27 26 25 24 24 24 23 23 23 22 22 22 23 23 22 22 21 21 21 20 20 20 20 19 20 20 19 19 19 20 20 21 22 22 23 23 23 23
29 29 28 28 28 28 28 27 26 26 25 24 24 24 23 23 23 22 22 22 22 22 22 21 21 21 21 20 19 19 19 19 20 20 21 21 21 21 21 22 22 22 22 23
30 29 28 28 27 26 26 26 26 25 25 25 24 23 23 23 23 23 22 22 21 21 21 21 21 22 21 20 20 19 19 19 20 20 20 20 20 19 20 20 21 21 21 22
29 28 28 28 27 26 26 25 25 25 24 24 23 22 22 22 22 22 22 22 21 21 21 20 21 21 20 20 19 19 19 19 19 19 19 18 18 19 20 20 21 21 21 22
28 28 28 28 27 26 25 25 24 24 23 22 22 22 21 21 21 21 21 21 20 19 19 19 20 20 19 18 18 18 19 19 19 19 19 19 19 20 21 21 22 23 23 24
28 28 28 27 26 24 24 24 24 23 22 22 21 21 21 21 21 20 19 19 18 19 18 18 18 18 18 18 18 18 18 18 19 19 19 19 19 19 20 21 22 23 24 25
27 27 26 26 25 24 23 23 22 22 21 21 21 20 21 20 20 19 18 17 17 17 18 18 18 18 18 18 18 18 18 18 19 20 19 18 18 19 20 21 22 23 24 25
25 25 25 24 24 23 22 21 21 21 21 20 19 18 18 18 18 18 17 17 17 17 17 17 17 17 17 17 18 18 18 18 19 19 19 20 20 21 22 23 24 25 26 27
22 23 23 22 22 22 21 20 20 19 19 18 18 17 16 16 16 16 17 17 17 16 16 17 17 17 17 17 18 18 18 18 19 19 20 21 21 22 23 24 25 26 27 28
22 21 21 20 20 19 19 19 19 19 18 17 16 15 16 16 15 15 15 15 14 15 15 15 15 16 17 17 17 17 18 18 19 20 21 22 23 23 24 25 26 27 28 28
20 19 19 18 18 18 18 17 17 17 17 16 15 15 14 14 14 14 14 13 13 13 14 13 14 15 16 16 16 16 17 19 20 21 22 23 24 24 24 25 26 27 28 29
19 18 18 17 17 17 16 16 16 16 16 15 15 15 14 13 13 13 12 12 12 12 12 13 14 14 15 16 17 18 19 20 21 22 23 23 24 24 25 26 27 29 30 31
18 17 16 15 16 16 16 15 15 15 14 14 14 13 12 12 12 12 11 12 12 12 13 13 14 14 16 17 18 19 20 21 21 22 23 24 24 26 27 28 29 30 30 31
17 16 15 14 14 15 14 14 14 13 13 13 12 11 11 10 10 10 10 11 11 12 12 14 14 15 16 18 19 20 20 21 22 23 24 24 25 27 28 29 29 30 30 31
16 15 14 14 14 14 14 13 12 11 11 11 11 10 10 10 10 10 10 11 12 13 14 15 16 17 18 19 19 20 22 23 23 24 25 26 27 28 29 29 29 30 30 31
15 14 14 14 14 13 12 12 11 10 10 10 9 9 9 9 10 10 11 12 13 14 14 15 17 17 19 20 21 22 23 23 24 25 26 27 28 28 28 29 29 29 29 30
16 16 15 14 14 13 13 12 11 10 9 9 9 9 9 9 10 11 11 12 14 15 16 17 18 19 20 22 22 23 24 25 26 26 27 27 27 27 28 28 27 27 27 27
15 15 14 14 13 12 12 12 11 10 9 9 9 10 10 11 11 13 14 15 15 16 17 19 20 21 21 22 23 24 25 25 26 26 26 26 26 26 27 26 26 26 25 25

GEFSNGP_500_meanwind_162.txt.gz
Wind_Speed
24 21 19 18 20 22 23 23 21 21 22 21 21 18 17 17 18 18 17 17 16 15 15 14 15 15 15 15 14 13 13 14 15 15 15 15 15 15 15 14 15 15 17 17
25 24 22 19 18 19 22 22 22 23 23 23 22 21 19 20 19 19 19 19 18 16 16 16 15 15 15 15 15 15 14 14 14 15 16 15 15 14 15 16 16 16 17 18
25 22 21 21 20 20 21 21 22 24 25 24 24 23 22 21 21 19 20 19 19 18 17 17 16 16 16 16 16 16 16 15 15 16 16 16 16 16 16 16 16 17 18 18
25 23 23 21 21 21 21 23 25 28 28 25 24 23 23 21 21 20 21 19 19 18 18 18 18 17 17 17 17 17 17 17 16 16 17 17 17 17 17 18 17 17 17 18
26 24 23 21 22 21 22 24 26 28 28 27 26 24 24 22 21 21 21 21 20 19 19 19 18 18 18 17 17 17 17 17 17 17 17 17 18 18 18 18 17 18 18 18
28 26 26 25 25 25 25 26 27 27 27 27 26 24 23 21 21 21 21 21 21 20 20 19 19 19 19 18 18 18 18 18 17 17 17 17 17 18 18 18 19 19 19 18
30 28 26 27 28 26 27 29 27 26 26 24 24 24 23 23 21 21 21 21 21 21 21 21 21 20 19 19 19 19 19 18 18 17 17 18 17 18 18 19 20 20 20 20
32 30 29 29 28 27 27 27 26 26 25 24 24 24 24 23 22 22 22 22 22 22 21 21 21 20 20 20 20 20 20 19 18 18 18 18 18 18 18 19 20 19 19 20
35 36 35 30 29 29 28 27 26 27 26 25 25 25 25 24 23 23 23 23 23 22 22 21 21 21 21 20 20 21 20 20 20 20 19 19 19 19 19 19 20 20 20 21
36 37 37 35 32 31 27 26 27 27 27 26 26 26 25 25 24 24 24 23 23 22 22 22 22 21 21 21 21 21 21 21 20 20 20 19 19 19 20 21 21 21 21 22
38 37 36 36 35 31 30 29 29 28 28 28 27 27 26 25 25 24 24 24 24 23 23 23 23 22 22 22 22 22 22 21 21 21 20 20 19 19 20 21 21 22 22 22
37 36 35 34 33 30 28 28 28 28 28 28 28 28 27 27 26 25 25 25 24 24 24 23 23 23 23 23 23 23 22 22 22 21 20 20 19 20 20 20 21 21 22 22
36 36 33 33 31 30 29 28 28 28 28 28 28 28 27 26 26 26 25 25 25 25 24 24 24 24 24 24 24 23 23 22 21 20 20 20 20 20 20 20 20 21 21 22
33 32 31 31 30 29 28 28 28 28 28 28 28 28 27 27 26 25 25 25 25 25 25 25 25 25 24 24 23 23 22 22 21 20 20 20 21 21 20 21 22 21 21 22
32 31 30 29 28 28 27 27 27 27 28 27 27 26 26 26 26 26 25 25 25 24 24 24 24 23 23 22 22 22 22 21 20 20 20 19 20 20 21 22 22 22 22 23
32 31 31 30 29 28 28 28 28 27 27 26 25 25 24 24 24 24 24 24 24 24 24 23 23 21 21 21 21 21 21 20 19 19 19 19 21 21 22 22 22 23 23 24
30 30 30 30 28 27 27 27 26 26 25 25 25 24 23 23 23 22 22 22 22 22 21 21 20 20 20 20 20 19 18 18 18 18 19 20 21 22 22 23 23 24 25 26
29 28 28 28 27 26 26 26 25 25 24 24 23 22 22 22 21 21 21 20 19 19 20 20 19 18 18 18 19 18 18 18 18 19 20 21 22 22 23 24 25 26 27 28
27 27 27 27 26 26 25 24 25 24 23 23 22 22 21 21 21 20 19 18 17 17 18 18 18 18 17 17 17 17 18 19 20 21 21 22 23 24 25 26 27 28 28 29
25 25 26 26 25 24 23 23 22 22 22 21 21 21 20 19 18 17 17 17 16 16 16 16 16 16 15 15 17 17 18 20 20 21 22 22 23 24 25 27 28 28 29 29
22 22 22 22 22 22 22 21 20 19 19 19 20 19 17 16 16 15 15 14 14 14 14 14 14 14 14 15 16 18 18 19 19 20 21 22 23 24 26 27 27 28 29 29
20 19 19 19 19 19 18 18 18 18 18 17 17 16 14 14 13 13 13 13 13 13 13 13 14 14 15 16 17 17 18 19 20 21 22 23 24 25 25 26 27 28 29 30
19 18 18 18 17 17 17 16 16 15 15 15 14 14 14 13 13 12 12 11 11 11 12 13 14 14 15 15 16 17 18 19 20 22 23 23 24 25 26 28 29 29 30 31
17 16 16 16 15 14 14 13 13 13 13 13 13 13 13 12 11 11 11 10 10 10 11 12 12 14 15 16 17 18 19 20 21 22 23 24 25 26 27 28 29 29 29 30
16 15 14 14 14 13 13 13 12 12 12 11 12 12 12 11 10 10 10 10 11 11 12 13 13 14 15 17 18 19 19 20 21 22 23 24 25 26 28 28 28 28 29 29
15 14 14 13 13 13 13 12 12 12 11 11 11 11 11 11 10 11 11 12 12 13 13 14 15 16 17 18 19 19 20 21 22 23 24 25 26 27 27 27 28 28 28 29
14 14 14 13 12 12 12 12 12 12 11 10 10 11 11 11 11 11 12 12 13 14 15 16 17 18 19 20 20 21 22 22 23 24 25 26 27 27 27 27 27 27 27 27

GEFSNGP_500_meanwind_168.txt.gz
Wind_Speed
26 25 24 24 24 24 25 25 24 23 22 20 18 17 15 13 11 11 10 9 8 8 9 9 10 10 11 10 10 9 10 10 11 12 13 13 13 13 14 14 14 15 15 15
27 28 27 25 24 24 25 24 24 23 22 19 18 16 14 12 12 10 9 9 9 10 9 10 10 11 11 10 10 10 10 11 11 12 13 12 13 14 14 14 14 14 14 14
29 29 29 28 25 25 25 24 23 23 22 21 19 16 15 13 12 12 12 11 11 11 11 12 12 11 11 11 11 11 11 11 11 11 11 12 13 14 14 14 14 14 14 14
30 30 32 28 26 25 25 24 24 23 22 22 21 18 16 15 13 13 14 14 13 13 13 12 12 12 12 12 12 12 12 12 13 13 13 13 13 13 14 15 15 15 15 15
32 31 30 29 28 25 25 25 24 24 23 22 20 19 17 16 14 14 14 14 13 13 13 12 12 12 12 13 13 13 13 13 14 14 14 14 14 14 14 15 15 15 15 16
33 33 32 29 29 28 26 27 25 24 24 22 21 20 18 17 16 15 14 14 13 13 13 13 13 13 14 14 14 14 14 14 15 15 14 14 14 14 15 15 15 16 16 17
34 33 32 30 29 29 29 27 26 25 23 21 22 21 20 18 17 16 16 15 15 14 14 14 15 15 16 16 15 15 15 16 16 15 15 15 15 15 15 16 16 16 17 17
36 35 34 31 31 31 29 26 26 25 23 22 21 21 20 19 18 17 16 16 16 16 16 16 16 17 17 17 17 17 17 17 16 16 16 16 16 16 16 17 17 17 18 18
36 35 32 32 31 31 30 29 26 26 24 23 22 20 20 19 18 18 17 17 17 17 17 17 17 17 17 17 17 17 17 17 17 16 16 16 16 17 17 17 18 18 18 19
35 35 33 32 32 32 31 30 29 28 27 24 22 21 19 19 18 18 18 18 18 18 18 18 18 18 18 18 18 18 18 18 17 17 17 17 17 17 17 17 18 18 19 19
35 34 32 32 32 31 30 28 27 26 25 24 21 21 20 19 19 19 19 19 19 19 19 19 19 19 19 19 20 20 19 19 18 18 18 18 17 17 17 17 18 18 19 19
34 33 32 31 31 31 29 28 26 25 25 24 23 23 22 20 20 21 21 21 21 20 20 21 21 20 20 20 20 20 20 20 19 19 18 18 18 18 18 19 19 20 19 20
33 33 32 31 31 30 30 29 28 26 25 25 25 24 22 21 22 22 22 22 22 21 21 22 22 22 21 21 21 21 20 20 20 20 19 19 19 19 19 20 20 20 20 21
31 30 30 30 30 30 30 29 28 27 26 25 25 24 23 22 22 22 22 22 22 22 22 22 22 22 22 21 21 21 21 21 21 20 20 20 20 20 20 21 20 20 21 22
30 30 29 28 27 28 28 27 26 26 25 24 23 22 22 22 22 22 23 22 22 22 22 23 22 22 22 21 21 21 21 21 21 21 21 21 21 21 21 21 21 21 22 23
29 27 28 27 27 26 26 27 27 26 25 24 23 22 21 21 22 22 22 22 22 22 22 22 22 21 21 20 20 20 20 20 20 20 20 20 20 20 21 21 21 22 22 23
29 27 27 27 26 24 24 24 25 25 25 23 23 22 21 21 21 21 21 21 22 22 22 21 20 20 19 19 19 20 20 20 21 20 20 19 20 20 21 21 22 23 24 25
27 26 24 23 23 23 23 23 22 23 24 23 23 21 20 20 20 21 21 21 21 22 21 20 20 19 19 19 20 20 20 20 20 19 20 20 21 21 21 22 23 24 25 25
23 22 21 20 20 21 21 21 21 22 22 22 21 21 21 21 20 20 20 21 20 20 20 19 19 19 19 20 19 20 20 19 19 19 20 20 21 21 22 23 23 24 25 26
22 21 21 21 21 20 19 20 20 20 20 20 19 19 19 19 19 19 20 19 17 17 18 18 18 18 18 18 18 18 18 18 19 20 20 21 20 21 22 23 24 25 25 26
22 21 20 20 20 20 19 19 18 18 18 18 17 17 18 18 18 17 17 17 16 16 15 15 15 16 16 16 16 16 16 17 18 19 19 20 21 22 23 24 25 25 26 27
19 19 19 19 19 19 19 18 17 16 16 16 16 16 16 16 15 15 14 14 13 13 13 13 14 14 14 14 15 15 15 16 17 18 19 20 21 22 23 23 24 25 26 27
18 17 17 17 17 17 17 17 16 15 15 15 15 15 14 14 14 13 13 12 12 12 12 13 13 13 12 13 14 15 15 16 17 18 19 20 21 22 22 24 25 26 26 27
16 16 16 16 15 15 15 14 14 13 13 13 13 13 13 13 12 12 11 11 11 11 11 11 11 12 12 13 13 14 16 17 18 19 19 20 21 22 23 24 24 25 26 27
16 16 16 15 15 14 13 13 12 11 11 11 11 10 10 11 11 10 10 10 11 11 11 11 12 12 13 14 14 15 16 17 18 19 20 21 21 22 24 25 26 27 28 28
16 15 15 14 13 13 13 12 12 11 11 11 10 10 10 10 10 10 10 11 12 12 13 13 13 13 14 15 16 17 19 20 20 21 22 22 24 25 26 27 27 28 28 29
15 14 13 13 12 12 12 12 12 11 11 11 10 10 10 10 10 11 11 12 12 13 13 13 14 15 17 18 19 20 21 22 23 23 24 25 26 26 27 27 27 27 27 27

GEFSNGP_500_meanwind_174.txt.gz
Wind_Speed
28 28 27 27 27 27 26 24 23 21 19 17 18 17 15 13 13 12 12 12 11 9 9 9 10 10 10 10 10 10 11 11 12 13 13 14 14 15 16 15 15 16 16 17
28 29 28 28 28 27 25 24 23 22 19 17 17 16 14 13 12 13 12 12 12 11 11 11 10 10 10 11 10 11 11 12 12 12 12 13 14 15 15 15 16 16 16 16
27 28 29 29 28 27 25 23 22 20 18 18 17 15 14 13 12 12 13 12 11 10 11 11 11 10 10 10 11 12 12 13 13 12 12 13 13 13 15 15 15 16 16 16
26 27 30 27 26 25 24 22 20 18 18 17 16 15 14 13 12 12 12 11 11 11 10 11 11 11 10 11 12 12 13 13 13 13 13 13 14 15 16 16 16 16 16 17
27 27 27 26 25 24 24 22 20 19 19 18 16 15 14 13 13 12 12 12 10 10 10 10 10 10 11 12 12 13 13 14 14 13 14 14 14 15 16 16 16 17 17 18
28 27 27 25 23 23 23 22 21 20 19 19 18 16 15 15 14 14 14 12 11 11 10 11 11 11 12 12 12 13 13 14 15 15 15 15 15 16 16 17 17 17 18 18
30 29 27 25 24 23 23 21 21 20 19 19 19 18 17 16 15 15 15 13 12 12 12 12 12 12 12 13 14 14 14 15 14 15 15 16 16 16 17 17 17 18 18 19
32 30 29 25 24 24 22 21 21 20 19 19 19 18 17 17 16 16 16 15 14 13 13 13 13 14 14 14 15 16 16 16 16 16 16 17 17 17 18 18 19 19 19 19
34 31 28 26 26 25 23 22 20 20 19 19 19 19 18 18 18 18 17 17 17 15 14 14 14 14 15 15 16 17 17 17 17 17 17 18 18 18 19 19 19 20 20 20
34 31 30 27 26 26 24 23 22 21 21 21 20 20 20 18 19 19 18 18 17 17 15 15 16 16 16 16 17 18 18 19 19 19 19 19 19 19 20 20 20 21 21 21
34 32 31 29 27 27 25 24 24 22 22 22 21 21 20 19 19 19 18 18 16 16 16 16 16 17 17 18 19 19 19 20 20 20 20 21 21 21 21 21 21 21 21 21
34 33 31 30 29 28 27 25 24 24 24 23 22 22 21 20 19 19 19 18 17 17 18 18 18 19 19 19 20 20 20 21 21 21 21 22 22 22 22 22 22 22 22 22
33 32 32 30 30 29 28 27 27 26 25 25 24 23 22 22 21 21 20 19 19 18 19 19 20 20 21 21 21 21 21 21 22 22 22 22 22 22 22 23 23 23 23 24
31 31 31 30 29 28 27 27 27 25 24 23 24 23 22 22 21 21 21 22 21 20 20 20 20 21 22 22 22 22 22 22 22 22 22 22 23 23 23 23 24 24 25 26
30 30 30 30 29 27 27 26 26 25 25 24 23 23 22 22 22 22 22 22 21 20 20 21 21 22 22 22 22 22 22 23 23 22 23 23 23 24 24 25 25 25 26 26
28 28 28 28 27 26 26 26 26 25 25 25 24 23 22 21 22 22 22 22 22 21 21 21 22 22 22 22 22 23 23 23 23 23 24 24 24 25 25 25 26 26 27 27
26 26 26 27 26 26 26 26 26 25 24 23 23 22 22 21 21 21 22 22 22 21 21 21 21 21 22 22 23 23 23 23 23 23 24 25 26 26 26 26 27 27 27 27
26 26 26 26 26 26 25 25 24 23 23 22 22 22 21 21 21 21 20 20 20 20 20 20 21 21 22 22 22 23 23 23 23 24 25 26 26 26 26 26 26 26 26 26
26 26 25 24 25 24 23 23 22 21 21 21 21 21 21 21 21 20 20 20 20 20 20 20 20 21 21 21 21 22 22 23 23 24 25 25 24 25 25 26 25 25 26 26
24 24 24 24 23 22 22 21 21 21 21 21 20 20 21 20 20 20 20 20 20 20 20 20 20 20 20 20 20 21 21 22 23 23 23 23 24 25 25 25 25 25 26 26
23 23 24 23 22 21 21 21 21 21 20 20 20 19 19 19 19 18 18 18 19 19 19 19 19 19 19 20 20 20 21 22 22 21 22 22 23 23 24 24 25 25 26 26
23 23 23 22 22 20 20 21 20 20 20 19 18 18 17 17 17 17 17 17 17 18 18 18 18 18 18 18 19 19 19 20 20 20 21 21 21 22 23 24 25 25 25 26
21 21 21 20 19 19 19 19 19 19 19 18 18 17 17 17 16 16 16 16 16 16 16 15 15 16 16 16 17 18 18 18 19 20 21 21 22 22 23 24 24 24 25 26
20 20 19 18 17 17 17 16 16 16 17 17 16 16 16 15 15 15 14 14 14 14 13 14 14 14 15 15 16 17 18 18 19 19 20 21 22 23 24 24 25 25 25 26
19 18 18 17 17 17 16 15 15 15 15 15 15 15 15 14 13 13 13 13 13 14 14 14 15 15 15 16 18 18 18 19 19 20 21 22 23 24 25 25 26 26 26 26
18 18 17 16 16 16 16 16 15 15 14 14 14 13 13 12 12 12 13 13 13 14 15 15 15 16 17 17 18 18 19 20 22 23 24 24 25 25 26 26 26 26 26 26
17 16 16 16 16 16 15 15 14 13 13 13 12 12 12 12 12 13 13 14 14 15 15 16 16 17 17 17 18 20 21 22 23 24 25 25 25 26 26 27 27 27 27 27

GEFSNGP_500_meanwind_180.txt.gz
Wind_Speed
28 28 26 25 25 25 25 24 21 20 19 18 17 16 16 15 14 14 13 13 13 12 12 12 11 10 10 10 11 11 12 12 13 13 14 14 14 14 15 15 16 16 16 16
27 26 25 25 25 25 25 24 22 21 20 19 19 18 17 16 16 15 14 13 13 13 12 12 11 11 11 11 12 12 12 13 13 13 13 13 14 14 14 15 15 16 16 16
24 25 25 25 24 24 24 23 22 21 20 20 19 18 17 17 16 16 15 14 14 13 13 13 12 12 12 12 13 13 13 13 13 13 13 14 13 13 14 15 16 16 17 17
24 25 24 23 23 23 22 22 22 22 21 20 18 17 17 17 17 16 15 15 15 14 14 13 14 14 14 13 13 13 14 14 14 14 14 14 14 13 13 14 15 16 17 18
25 23 23 24 22 21 21 21 21 21 20 20 18 17 17 17 17 16 16 15 14 14 14 14 14 14 15 14 14 13 13 14 14 14 13 14 14 14 14 14 15 16 17 18
27 24 21 22 21 21 21 21 20 20 20 19 19 18 18 18 17 17 17 16 15 15 15 14 14 14 14 14 14 14 14 14 14 14 14 14 14 15 15 16 17 17 18 18
28 25 23 23 21 21 20 20 20 20 20 19 20 20 19 19 18 18 18 17 17 17 16 15 15 15 15 15 14 14 15 15 15 15 15 15 15 15 16 16 17 18 19 19
29 27 25 24 22 22 21 21 20 20 20 20 20 20 20 20 20 19 18 18 18 17 16 16 16 16 16 16 16 16 16 16 16 16 16 16 16 17 17 17 18 19 19 20
32 29 28 25 23 22 22 22 22 21 21 21 21 21 21 21 20 19 18 18 18 17 16 16 16 16 17 17 17 17 17 17 17 17 18 18 18 18 19 19 19 19 20 20
32 30 27 25 24 24 23 23 23 23 22 22 22 21 21 21 21 20 19 19 19 17 17 17 17 17 17 18 18 18 18 18 19 19 20 20 20 20 20 20 20 21 21 21
31 30 28 27 26 25 24 24 24 23 22 23 22 22 22 21 21 21 20 20 20 20 19 19 18 18 19 19 19 19 19 20 20 21 21 21 21 21 21 22 22 22 23 23
31 30 29 27 26 25 25 25 25 24 23 23 23 23 23 22 22 22 22 21 21 21 21 20 20 20 20 20 20 20 21 21 22 22 22 22 22 22 23 23 23 23 24 25
31 30 29 28 27 26 26 25 26 26 24 24 24 24 23 23 22 23 23 23 22 22 22 22 22 21 21 21 21 21 21 21 21 22 22 22 22 22 23 23 24 25 25 25
30 30 29 28 28 28 27 26 26 26 25 25 25 25 24 23 23 23 23 23 22 22 22 23 23 22 22 22 22 22 22 22 22 22 23 23 24 24 25 25 25 26 26 26
30 30 30 29 29 28 28 27 27 27 26 26 25 25 24 23 23 23 23 22 22 23 23 24 23 23 23 23 23 23 23 23 23 24 24 25 25 25 26 26 26 27 27 28
30 30 30 30 30 29 29 28 28 28 28 27 25 25 24 24 23 23 24 23 23 23 24 25 24 24 24 24 24 24 24 24 24 25 25 25 25 26 26 27 27 27 28 28
29 30 30 30 30 30 30 29 29 28 27 28 27 26 25 24 24 23 24 23 23 23 24 24 24 24 24 25 25 25 24 24 25 25 25 25 25 26 26 27 27 27 28 28
29 29 29 29 29 29 29 30 29 28 27 27 27 26 25 25 25 25 24 24 24 25 25 25 24 25 25 25 25 24 24 24 24 25 25 25 26 26 27 27 27 27 28 28
28 28 28 28 28 28 28 29 29 28 28 28 27 26 26 26 25 25 24 24 24 24 24 24 24 24 24 24 24 24 24 24 24 25 25 25 25 26 26 26 27 27 27 26
28 28 28 28 28 27 28 28 28 28 27 26 26 26 25 24 24 24 24 24 23 23 23 23 23 23 23 24 24 24 24 24 24 24 24 24 25 25 26 26 26 26 25 25
28 28 27 27 26 26 26 26 26 25 24 23 23 23 23 23 24 24 24 23 23 23 22 23 23 23 23 23 23 23 23 23 23 23 23 23 23 24 24 24 24 25 24 25
26 26 26 26 25 24 24 24 24 23 22 22 22 21 22 22 23 23 23 23 23 23 22 22 22 22 22 22 22 22 21 22 22 22 22 22 22 23 23 24 24 25 25 25
24 24 24 24 24 23 22 22 22 21 21 22 21 21 22 22 22 22 22 22 22 21 21 21 21 20 20 20 21 20 20 21 21 21 22 22 22 23 24 24 24 25 25 25
23 23 22 22 23 22 21 21 21 21 21 21 21 20 21 21 21 21 20 20 20 20 20 20 20 19 19 20 20 20 20 20 21 21 22 22 23 23 24 24 24 24 25 25
23 23 22 22 22 21 21 21 21 21 20 21 20 20 20 19 19 18 18 18 18 19 19 19 19 18 18 19 19 19 20 20 21 21 22 22 22 23 23 23 23 24 25 25
23 22 21 20 20 20 20 20 20 20 19 19 19 19 19 18 18 17 18 18 17 17 17 17 17 17 17 18 18 19 20 20 21 22 22 22 22 23 23 23 24 24 24 24
22 22 21 20 19 18 18 18 18 18 18 18 17 18 18 17 17 17 17 17 16 16 16 16 16 16 17 17 18 19 20 20 21 21 21 22 23 24 24 24 24 24 25 25

GEFSNGP_500_meanwind_186.txt.gz
Wind_Speed
28 23 21 22 22 23 25 25 22 21 22 23 22 20 20 20 20 18 16 15 15 15 14 14 14 13 13 12 12 12 12 11 12 12 13 12 13 14 14 14 14 14 15 15
30 26 23 22 22 23 24 25 23 22 23 22 22 22 22 21 20 18 17 16 16 15 14 14 14 13 13 13 13 12 12 12 12 13 13 13 13 14 14 14 14 14 15 15
29 27 27 26 25 23 22 22 23 24 24 23 22 23 23 22 21 20 18 17 17 16 15 15 14 14 13 14 13 12 12 12 12 13 13 13 14 14 14 14 15 16 15 15
27 27 28 26 24 23 23 23 23 24 26 24 23 24 24 23 21 20 19 18 17 16 16 15 15 14 14 14 14 13 13 13 13 14 13 14 14 15 15 15 15 15 15 15
26 25 26 24 24 23 23 24 25 25 25 25 25 24 24 22 21 19 18 17 17 16 16 16 15 15 14 14 14 14 14 14 14 14 14 15 15 16 16 15 16 16 16 16
28 24 24 22 22 22 24 25 26 27 28 26 26 24 22 21 21 19 18 17 17 17 17 17 17 16 16 16 15 15 15 15 15 15 15 15 16 16 16 16 17 17 17 17
30 26 23 22 21 22 24 25 26 26 26 26 25 25 23 22 21 19 19 18 18 18 18 18 17 17 16 16 15 16 16 16 16 16 16 17 17 17 17 18 18 18 18 18
31 27 25 24 23 25 26 26 26 26 25 25 25 24 24 23 22 20 20 19 19 19 19 18 18 17 17 16 16 16 16 16 17 18 18 18 18 18 18 19 19 19 20 20
33 33 30 28 29 28 27 26 26 26 25 25 25 25 24 24 22 21 21 21 20 19 18 18 18 18 17 17 17 17 17 17 18 18 19 19 19 19 20 20 20 20 21 21
35 35 34 31 29 29 28 27 27 27 26 25 25 25 24 24 23 22 22 22 21 20 19 19 19 19 18 18 17 18 18 19 19 19 19 19 20 21 21 22 22 22 22 23
37 37 36 33 31 29 29 29 28 27 26 25 25 25 24 24 23 23 22 22 21 21 21 21 21 20 20 20 20 20 20 20 20 21 21 21 22 22 22 23 23 24 24 24
39 38 36 34 32 31 30 29 29 28 27 26 25 25 25 24 24 24 23 22 21 21 21 21 21 21 21 21 21 21 21 21 21 22 22 22 22 23 23 24 25 25 25 26
36 36 35 34 34 33 31 30 29 28 28 26 26 26 25 25 25 24 24 23 23 23 22 22 22 22 22 23 23 23 23 23 23 22 23 23 23 24 24 25 26 26 27 27
33 34 34 33 34 33 31 29 29 28 27 27 26 26 26 26 26 25 25 24 24 24 23 23 23 23 23 24 24 24 24 24 23 23 23 24 24 25 26 26 26 27 27 28
32 33 33 32 32 32 31 30 29 28 28 27 26 26 26 26 26 26 26 25 24 24 24 24 24 24 24 24 24 24 23 24 24 25 25 25 25 26 26 26 27 27 28 29
31 31 32 32 32 31 31 31 30 30 29 28 27 26 25 25 25 25 26 25 25 25 25 25 25 25 24 24 24 24 24 24 25 25 25 26 26 27 27 27 28 29 29 30
32 32 31 31 31 31 31 31 30 30 29 28 27 26 26 26 26 26 26 26 26 25 25 25 24 24 25 25 25 25 25 25 25 26 26 26 26 27 27 28 29 29 30 30
30 30 30 30 30 30 30 31 30 30 30 29 28 27 27 26 26 26 26 26 26 25 25 25 25 25 25 25 25 25 25 25 25 25 26 26 27 27 28 29 29 29 29 30
30 30 30 30 30 30 30 30 30 30 30 30 29 28 28 27 26 26 26 26 26 26 25 24 25 25 25 25 25 25 25 25 25 26 27 27 28 28 29 30 29 29 30 31
30 30 30 30 30 30 29 29 29 30 29 29 28 27 27 27 26 25 25 25 25 25 24 24 24 24 24 24 24 24 24 25 25 26 26 27 28 28 29 29 29 30 30 30
29 30 30 30 30 29 28 27 28 30 29 29 28 27 26 26 26 25 25 25 24 24 24 24 24 23 23 23 23 24 24 24 24 25 26 27 27 28 28 29 29 29 29 30
28 29 30 29 28 27 27 27 27 27 27 27 26 26 26 26 25 25 25 24 24 23 23 23 23 23 24 24 24 24 24 24 25 25 26 26 26 26 26 27 27 28 29 30
27 27 27 27 26 26 26 26 26 26 26 25 25 24 24 24 24 24 23 23 22 22 22 22 22 23 23 23 23 23 24 24 24 24 24 25 25 25 26 27 27 29 30 30
25 24 24 24 25 24 23 23 23 24 24 24 23 22 22 22 22 22 22 22 21 21 21 22 22 22 22 23 23 23 23 23 23 23 23 23 24 26 27 27 28 29 29 30
22 23 23 23 23 22 22 22 23 22 22 22 22 22 21 21 21 20 20 20 20 21 20 21 21 21 22 22 22 22 22 22 22 22 23 24 26 26 27 27 28 29 29 30
20 21 22 22 21 21 21 21 21 21 21 21 21 21 21 20 20 19 20 20 20 20 20 20 20 21 21 21 21 20 20 21 22 23 24 25 26 26 27 27 28 29 29 29
18 19 19 19 19 19 20 20 20 20 20 20 20 19 19 19 19 19 19 19 19 20 19 18 18 19 19 18 19 19 20 22 23 24 25 26 26 26 27 27 28 28 28 28

GEFSNGP_500_meanwind_192.txt.gz
Wind_Speed
31 29 28 26 25 25 25 24 25 23 22 20 19 18 18 17 16 15 14 13 11 10 9 10 11 11 11 10 10 8 8 9 9 9 9 9 9 9 9 9 10 10 10 11
32 31 30 28 26 26 25 25 25 24 24 21 21 20 20 19 18 17 16 13 12 10 10 10 10 10 10 10 9 9 9 9 9 9 9 9 9 8 9 9 10 10 11 11
33 33 32 31 27 26 26 26 26 25 24 23 23 22 22 20 19 17 16 14 13 12 12 11 11 11 11 10 10 9 9 9 9 9 9 9 9 9 9 10 10 10 11 11
32 33 35 30 29 28 27 25 26 25 24 24 23 23 23 22 20 18 16 14 14 14 13 12 12 12 12 11 10 10 10 10 10 9 9 9 10 10 10 11 11 11 12 12
33 34 34 31 31 30 29 28 27 25 24 24 24 24 24 22 20 19 18 15 14 14 14 13 13 13 12 12 11 11 11 11 11 10 10 10 11 11 11 11 12 12 12 13
34 34 34 32 31 32 31 31 28 26 25 25 24 24 23 22 21 20 20 17 15 15 14 14 14 13 13 13 12 12 12 12 12 12 12 12 12 12 13 13 13 13 13 14
34 34 33 32 32 32 33 31 28 27 26 24 24 23 22 22 21 20 18 17 16 16 15 15 15 14 14 14 13 14 14 14 13 13 13 12 12 13 14 14 14 15 16 16
34 33 32 31 32 33 32 29 29 28 26 25 24 23 22 21 20 20 19 17 17 17 17 16 16 15 14 14 14 15 15 15 14 14 14 14 14 14 14 14 14 15 16 17
34 32 30 31 32 32 30 29 29 28 27 25 23 22 22 21 20 20 18 18 18 18 17 17 16 16 16 15 15 15 15 15 15 14 15 15 15 15 15 15 16 17 18 19
35 34 32 31 31 31 29 29 29 28 26 24 24 23 22 21 21 20 19 19 18 18 18 17 17 17 16 16 16 16 16 15 16 16 16 16 16 16 17 17 18 19 19 20
35 34 33 33 32 31 30 29 29 28 27 26 25 24 23 22 21 21 20 20 19 19 18 18 18 18 17 17 18 18 18 18 18 18 18 18 18 18 18 19 19 20 21 22
36 35 34 32 32 32 31 31 31 30 28 26 25 25 23 22 21 21 21 20 19 19 19 19 18 18 18 18 18 19 19 20 19 19 19 19 18 19 19 20 21 22 23 23
36 36 35 34 33 32 31 30 30 30 29 27 27 26 24 23 22 21 21 20 20 20 20 20 20 19 18 18 19 19 20 20 19 19 19 19 20 20 21 22 22 23 24 24
36 35 34 34 33 33 32 31 29 28 29 28 27 26 25 24 23 22 21 21 21 20 20 20 20 20 19 19 20 20 20 20 20 20 20 21 22 22 22 23 24 24 24 24
35 35 34 34 33 33 32 30 29 29 29 28 27 27 26 25 25 24 23 22 22 22 22 21 21 21 20 20 20 21 21 20 21 21 21 22 22 23 23 24 24 24 25 25
35 35 34 33 31 31 31 31 29 28 27 27 27 27 27 26 26 25 24 23 23 23 23 22 22 22 21 21 21 21 21 21 21 21 21 22 23 23 24 25 25 25 26 26
35 35 35 34 31 30 30 30 29 27 27 27 27 27 27 27 27 26 25 25 25 24 23 23 23 23 23 23 23 22 22 22 22 22 23 24 24 25 25 26 26 27 27 28
32 33 32 31 29 29 30 29 27 26 26 26 26 26 27 27 28 27 27 26 26 25 24 24 24 24 24 23 23 23 22 22 23 24 24 24 25 26 26 27 27 27 28 29
29 30 30 31 31 30 30 28 27 27 26 26 26 26 26 26 26 26 26 26 26 25 24 24 24 23 23 23 23 23 24 24 24 25 24 25 25 26 26 27 28 28 28 29
26 26 26 27 28 28 27 27 27 28 27 27 26 26 26 26 25 25 25 25 24 24 24 24 24 24 24 24 24 25 25 25 25 25 25 25 26 26 26 26 27 27 28 29
25 25 24 25 25 26 26 26 26 26 26 26 25 25 25 26 25 24 24 24 24 23 23 24 24 24 24 24 24 24 24 25 24 25 25 26 26 27 27 27 27 27 28 28
22 23 23 23 24 26 26 26 26 25 25 24 24 24 25 25 25 24 23 24 24 23 23 23 23 23 23 23 23 24 25 24 24 24 25 25 26 27 27 27 27 27 28 28
20 21 22 23 23 24 25 25 25 25 25 24 24 24 24 24 24 24 23 22 23 23 22 22 22 22 22 22 22 22 22 22 23 24 24 25 26 28 28 28 27 27 28 28
20 21 22 22 22 22 23 24 24 24 23 23 23 23 23 24 23 22 21 21 21 21 21 21 21 22 22 22 21 21 22 23 23 23 23 25 26 27 27 27 27 28 28 29
19 19 19 20 20 20 20 21 22 22 21 21 21 21 21 21 20 20 20 20 20 20 20 21 21 21 21 22 22 22 22 22 22 22 23 24 25 26 26 27 27 28 28 29
16 17 17 17 17 17 17 18 18 19 19 19 18 19 20 19 19 19 19 19 19 19 19 20 20 20 20 21 21 22 22 22 22 23 24 25 25 25 26 27 28 28 28 28
15 16 16 16 16 15 15 16 16 17 18 18 18 18 18 18 17 17 17 18 18 19 19 19 19 20 20 21 22 22 23 23 23 24 24 24 25 26 26 27 27 28 28 28

GEFSNGP_500_meanwind_198.txt.gz
Wind_Speed
32 31 31 30 29 28 27 26 25 22 20 18 18 17 16 15 15 14 14 13 12 12 12 12 12 12 12 10 9 9 9 8 8 8 9 9 9 10 10 10 10 10 11 11
33 32 31 31 30 28 27 25 24 23 21 19 18 17 16 16 15 15 15 14 13 12 12 12 13 13 12 11 11 11 10 9 9 10 10 10 10 10 10 9 10 11 10 10
34 33 33 33 31 29 27 26 24 23 20 19 19 19 18 17 16 15 16 16 15 14 13 13 13 13 13 12 12 11 11 10 11 11 11 11 11 11 10 10 11 11 10 11
33 33 34 32 31 30 28 26 25 23 21 20 19 19 18 17 17 16 16 16 16 16 14 13 13 13 13 13 13 12 12 11 12 12 11 12 11 11 11 11 11 11 12 12
33 33 33 33 32 31 30 28 25 24 22 21 20 19 18 18 17 17 17 17 17 17 16 15 14 14 13 14 14 14 13 12 12 12 13 13 12 12 12 12 13 13 13 14
33 33 33 32 32 31 29 28 26 25 22 21 21 20 18 18 18 18 17 17 18 18 17 15 14 14 14 15 15 15 14 13 12 13 13 14 13 13 13 14 14 14 15 15
33 33 32 32 31 30 30 28 27 25 24 22 21 20 19 19 19 19 18 18 18 17 16 15 15 15 15 15 16 15 14 14 13 14 14 14 15 15 15 15 15 16 16 17
33 33 32 31 30 30 29 28 27 26 25 24 23 22 21 21 20 19 19 19 19 18 17 16 16 16 15 15 15 14 14 14 14 15 15 14 15 15 15 16 16 16 17 17
35 33 32 31 30 29 29 28 28 27 27 26 25 24 23 22 21 21 20 20 19 19 18 17 17 17 16 16 15 15 15 15 15 15 15 15 16 16 16 17 17 18 19 20
35 34 33 32 31 29 29 28 28 28 27 26 26 25 25 24 23 22 22 20 20 19 19 17 17 17 17 16 16 16 16 16 15 16 16 17 18 17 18 18 19 20 21 21
37 35 33 32 31 29 29 28 28 28 27 25 25 24 24 23 22 22 21 20 20 20 18 17 17 17 16 17 17 16 16 16 16 17 17 18 18 18 19 20 21 21 21 22
38 36 35 33 31 29 28 28 28 28 28 27 25 25 25 24 23 22 21 20 20 19 18 18 18 17 17 17 17 17 17 17 17 17 18 18 18 19 20 21 21 22 22 22
37 36 35 34 32 29 29 29 29 29 28 27 26 26 25 24 23 22 22 22 21 20 19 18 18 18 17 17 18 18 18 18 18 18 18 18 18 19 19 20 21 22 22 24
36 35 34 33 32 31 30 30 30 30 29 29 28 28 28 26 25 25 24 24 23 22 21 20 20 19 20 19 19 20 20 20 19 18 19 20 20 20 21 22 23 23 23 25
34 34 34 33 32 31 31 31 31 31 30 31 31 30 29 28 27 27 26 25 24 23 23 22 22 22 21 21 21 21 22 21 20 21 21 22 22 22 23 23 24 25 26 27
34 35 34 32 31 31 31 32 31 31 31 31 31 30 28 28 27 27 26 26 25 25 24 24 23 23 23 23 22 22 22 22 22 22 22 23 24 24 24 25 26 27 28 28
34 34 34 32 31 31 31 31 32 32 31 30 29 30 28 28 27 26 25 25 24 24 24 24 24 25 25 25 24 23 23 23 23 23 23 24 24 25 26 27 28 28 30 30
33 32 32 32 31 30 30 30 29 29 30 31 30 31 29 27 26 26 25 24 24 24 24 25 25 25 25 25 24 24 24 25 25 25 25 25 25 26 27 28 29 30 30 30
32 32 32 31 30 29 28 28 29 28 28 27 28 27 26 26 26 26 26 25 25 25 25 26 25 26 26 26 26 26 26 26 25 25 25 26 27 27 29 29 30 30 30 30
29 30 30 30 29 29 28 27 27 26 25 26 26 25 25 25 26 26 25 25 25 25 25 25 25 26 26 26 26 26 26 26 26 26 26 26 27 28 28 29 29 29 29 30
24 26 27 28 28 27 27 27 26 25 25 24 24 23 23 24 24 24 25 25 24 24 24 24 25 25 25 25 26 26 26 25 26 26 26 27 27 28 29 29 29 29 29 30
22 23 24 25 25 25 25 25 25 25 25 24 24 24 24 23 23 23 24 24 24 24 24 24 24 25 25 25 26 26 26 25 25 26 26 27 27 28 28 29 29 29 29 30
21 21 21 22 22 23 23 24 24 25 25 24 23 23 24 23 22 23 23 23 23 24 24 24 24 24 24 24 24 24 24 25 25 25 26 27 27 27 28 27 28 29 30 30
19 18 19 20 20 20 21 22 23 23 22 22 22 22 22 22 22 22 23 23 24 23 23 23 22 22 23 23 23 23 23 24 25 25 25 25 26 26 26 27 28 28 29 29
18 19 19 19 19 18 18 18 19 20 20 20 20 21 21 21 21 21 21 21 21 21 21 21 22 22 22 22 21 22 23 23 24 24 24 25 25 26 26 27 28 28 29 29
17 17 17 17 17 17 17 17 17 18 19 20 20 20 20 20 20 20 21 20 20 21 20 20 21 21 20 20 21 22 22 23 23 23 24 25 25 26 27 28 28 29 30 30
16 16 16 16 16 16 16 15 16 17 18 18 19 19 19 19 19 19 19 19 20 20 20 20 20 20 20 21 20 21 22 22 23 24 25 26 27 27 28 29 29 29 29 30

GEFSNGP_500_meanwind_204.txt.gz
Wind_Speed
33 31 30 29 28 27 26 23 20 18 17 17 16 14 13 13 13 13 13 13 13 14 13 12 12 12 12 12 11 11 10 9 9 10 10 10 9 9 10 10 10 10 10 10
33 32 31 30 29 29 27 25 22 20 19 18 17 16 14 13 13 13 13 13 14 14 13 13 13 14 13 13 12 11 11 11 11 11 11 11 11 11 11 11 12 12 11 11
33 33 32 32 31 29 28 26 24 22 21 20 18 17 16 15 14 14 14 14 14 14 14 14 14 15 14 13 13 12 12 13 13 12 12 12 12 12 12 12 12 12 12 12
32 32 32 32 31 30 28 27 25 23 22 21 20 18 18 17 16 16 15 15 14 14 15 15 15 15 14 14 14 14 13 14 14 14 14 13 12 12 12 12 12 12 12 13
32 31 32 33 31 30 29 28 26 24 22 21 20 19 19 19 18 17 16 15 15 15 16 16 16 16 14 14 14 14 15 15 15 15 14 14 13 13 13 13 13 13 14 14
33 31 30 32 31 30 29 28 27 25 23 22 21 20 20 19 19 18 17 16 16 17 17 17 17 17 16 15 15 16 16 16 16 15 15 15 15 14 14 14 14 15 15 15
33 31 30 32 30 29 29 29 28 26 24 23 22 22 21 20 20 19 18 18 18 18 18 19 18 18 17 16 16 17 17 17 17 16 16 16 16 15 15 15 15 16 16 17
33 31 31 31 29 30 30 29 28 27 26 24 23 23 22 22 21 20 20 19 19 19 19 19 18 18 17 17 17 17 17 17 17 17 18 17 16 16 15 15 15 16 17 17
34 33 31 30 29 29 29 29 28 27 26 26 24 24 24 23 22 22 21 20 20 20 20 19 18 18 18 18 18 17 17 18 18 18 17 16 16 16 15 16 16 16 17 17
35 33 31 29 28 28 28 28 28 27 26 26 25 25 24 24 24 23 22 22 21 20 20 19 18 18 18 18 18 18 18 18 19 18 17 17 17 17 17 16 16 17 18 19
34 33 32 30 28 29 29 28 28 27 27 26 26 25 25 25 25 24 23 22 21 20 20 19 19 19 19 19 19 18 19 19 19 19 18 18 17 17 16 16 17 17 18 19
34 33 32 30 29 29 29 29 28 28 27 27 27 26 25 25 25 25 24 23 22 21 21 21 21 21 20 20 20 20 20 20 19 19 19 18 18 17 17 17 18 19 19 20
34 33 32 31 30 30 29 29 29 28 28 28 27 26 26 26 26 26 25 24 23 23 23 23 22 22 21 22 22 21 21 20 20 19 19 19 19 19 19 19 20 20 21 21
34 33 33 32 32 31 30 29 29 28 28 28 28 27 26 27 27 26 26 25 25 25 24 24 23 23 22 23 23 22 23 22 22 21 21 21 21 21 21 21 21 22 22 23
33 33 32 32 32 31 30 30 29 29 28 28 28 28 27 28 28 27 27 27 27 26 26 25 25 25 24 24 23 23 23 24 24 23 22 22 22 23 22 22 23 23 24 24
33 33 32 32 32 32 31 30 30 29 28 29 30 29 29 28 28 28 28 28 28 27 26 26 26 26 25 25 25 25 25 25 25 24 24 24 24 24 24 24 24 25 25 26
33 33 32 32 32 32 32 32 31 30 29 30 30 30 30 29 29 29 29 29 29 28 27 27 27 26 26 26 26 26 26 26 26 26 26 25 25 25 25 25 26 26 26 27
32 32 32 32 32 31 32 32 31 31 30 29 29 30 30 30 29 29 29 29 29 28 28 28 27 27 27 26 27 27 27 27 26 26 26 26 26 26 26 26 26 27 27 28
32 31 31 31 32 32 31 31 31 31 30 29 29 29 29 29 29 29 30 30 30 29 29 29 28 27 27 27 28 28 27 27 26 26 26 27 27 27 27 27 27 28 29 29
29 29 29 30 30 30 30 30 30 29 29 29 29 29 29 29 29 29 30 30 29 30 30 30 30 29 28 28 27 27 26 26 26 26 27 27 27 26 26 27 28 29 29 29
27 27 27 28 28 28 28 28 28 28 28 28 29 29 29 29 29 29 30 30 30 30 30 30 29 29 27 26 26 26 27 27 27 27 27 27 26 26 26 27 27 29 29 29
26 26 26 26 26 26 26 26 26 26 27 27 28 27 28 28 28 29 29 30 30 29 29 29 28 27 27 26 26 27 27 27 27 27 27 27 26 26 26 26 28 28 28 28
26 25 25 25 26 25 25 25 25 25 26 27 26 26 26 27 27 26 26 27 27 27 27 26 26 26 26 26 27 27 27 27 27 26 26 26 26 26 26 27 27 27 27 28
25 25 24 23 24 24 24 24 24 24 24 24 24 24 24 25 25 25 25 25 25 25 26 26 25 25 26 26 26 27 26 27 27 26 25 25 25 26 26 26 26 27 27 27
21 22 22 21 22 22 23 23 22 22 22 22 22 23 23 23 23 23 24 24 24 24 24 24 25 25 26 26 26 26 26 26 25 24 24 24 25 25 25 25 26 26 27 27
20 21 22 21 22 22 22 22 21 21 21 21 21 22 22 22 23 23 23 23 24 24 24 24 25 25 25 25 25 25 25 24 24 24 24 24 24 24 24 24 25 26 27 27
19 20 21 21 21 21 21 21 20 19 19 20 20 20 21 21 22 22 22 22 22 22 23 23 23 23 23 23 24 23 23 23 23 23 23 23 22 23 23 24 25 26 26 27

GEFSNGP_500_meanwind_210.txt.gz
Wind_Speed
31 25 20 22 24 24 25 24 22 19 19 21 21 20 17 17 17 15 14 14 13 13 13 13 13 14 14 14 14 14 14 14 14 14 14 14 14 14 14 14 13 13 12 12
35 31 24 22 22 24 26 26 24 21 20 20 22 22 21 18 17 16 15 15 15 14 13 14 14 14 14 14 14 14 14 14 15 15 15 15 15 15 15 14 14 14 14 14
34 32 30 28 25 24 26 27 26 25 23 21 22 24 23 19 18 17 16 16 16 15 15 15 14 14 15 15 15 16 16 16 15 16 16 16 16 16 15 15 15 15 15 15
33 32 34 32 27 25 25 27 27 27 26 26 24 24 24 21 19 18 17 16 16 16 15 15 15 15 15 16 17 17 17 17 16 16 16 17 17 16 16 16 16 17 17 17
34 31 32 32 31 29 28 28 27 27 27 26 24 24 24 21 20 19 17 17 17 16 16 16 16 16 17 17 17 18 18 18 17 17 17 17 18 18 17 17 18 19 18 17
35 32 30 31 29 29 28 29 29 29 28 27 25 24 23 22 21 21 20 19 18 18 17 17 16 17 18 18 18 19 18 18 17 17 17 18 18 18 19 19 19 19 17 17
35 33 30 27 27 28 30 30 30 30 29 28 27 26 25 23 23 22 21 21 20 19 18 18 18 18 18 19 19 19 19 18 18 18 19 19 19 19 20 20 18 17 16 16
36 33 29 28 28 30 31 30 30 30 30 29 28 28 26 25 24 24 22 21 20 20 19 19 19 19 19 19 20 20 20 19 18 19 20 20 20 20 20 19 17 17 17 17
36 36 32 31 33 33 32 31 31 31 31 30 29 28 28 26 25 24 23 22 22 21 21 20 20 20 20 20 21 21 20 19 19 20 20 20 20 20 20 19 18 17 17 18
34 36 36 35 34 34 33 32 32 31 31 30 29 29 28 26 25 24 24 24 23 23 23 22 22 22 22 22 22 21 20 20 21 21 22 21 21 20 20 20 20 19 19 18
37 38 37 38 35 33 34 33 32 32 31 29 29 29 28 26 26 25 24 24 24 24 24 24 24 24 23 23 22 22 22 22 23 23 23 23 22 21 21 21 20 20 20 20
40 39 38 37 36 33 32 33 33 33 32 31 31 30 29 27 27 26 25 25 25 25 25 25 25 25 24 24 24 24 24 24 25 24 24 23 22 22 22 23 22 22 21 21
39 38 36 36 34 33 32 32 32 32 31 31 31 30 28 28 28 27 27 26 26 26 26 26 26 26 26 26 26 26 25 26 25 24 23 23 23 23 23 24 23 23 22 22
35 35 36 35 34 35 33 32 32 31 30 31 31 30 29 29 29 28 28 28 27 27 27 27 27 27 27 27 27 27 27 27 26 25 25 25 25 25 25 25 25 24 24 24
34 33 33 32 33 33 32 32 31 31 31 31 31 31 30 30 30 29 29 29 29 29 29 28 28 28 28 28 28 28 28 28 27 27 26 26 27 27 27 27 26 26 26 25
34 35 34 33 32 31 31 31 31 31 31 31 31 31 31 31 30 30 29 30 30 30 30 29 29 30 29 29 29 29 29 28 29 28 28 28 28 28 28 28 27 27 27 27
33 33 34 34 33 33 32 32 32 32 31 31 31 31 32 32 31 31 31 31 31 31 31 31 31 31 30 30 30 30 30 30 30 29 29 29 29 30 30 28 27 27 28 27
34 33 33 33 34 34 34 33 33 33 32 32 33 32 32 32 32 32 32 32 32 32 32 32 32 32 32 31 31 31 31 31 31 30 30 30 30 30 29 28 27 28 28 27
33 33 33 33 33 33 33 33 34 34 33 33 33 32 32 32 33 33 33 33 33 33 32 32 32 32 32 32 32 32 32 32 32 31 31 31 31 30 29 29 29 29 28 28
32 32 33 33 33 33 32 33 33 34 34 33 33 33 33 33 33 33 32 32 31 31 31 32 33 33 33 32 32 32 32 32 32 32 31 31 31 30 30 30 30 30 30 30
31 31 32 33 33 33 33 33 34 34 34 34 34 34 33 32 32 31 31 31 31 31 31 31 32 32 32 31 32 32 32 32 32 31 31 31 30 30 30 31 31 30 30 30
30 31 32 33 33 33 34 34 34 34 33 33 33 33 33 32 32 32 32 31 30 30 30 30 31 31 31 31 32 32 33 32 31 31 30 30 30 30 30 30 30 30 31 30
29 30 31 33 33 33 33 33 33 33 32 32 33 33 32 32 32 31 31 31 31 31 30 30 30 31 31 31 31 32 32 31 30 29 29 30 30 30 30 29 29 30 30 30
27 28 29 30 30 30 30 30 30 30 29 29 30 29 29 30 30 30 30 30 30 29 29 29 29 30 29 29 29 29 28 28 28 28 29 29 29 29 29 28 28 29 29 30
27 28 27 27 27 27 26 26 26 26 27 27 28 28 28 29 29 29 29 29 28 29 29 29 29 29 28 27 27 26 26 27 27 28 28 28 29 29 29 28 28 28 29 30
25 26 27 27 26 26 26 26 26 26 27 26 27 27 27 27 26 26 26 26 27 27 27 28 27 27 26 26 26 26 26 26 27 28 28 27 27 27 28 28 28 28 29 30
22 23 25 26 26 26 25 25 25 25 26 26 26 26 25 25 24 24 24 25 25 26 26 26 25 25 26 26 26 26 26 26 27 27 27 27 27 27 27 26 27 28 28 29